Flag for U.S.A. Weather past 2 weeks in Hartford, Connecticut, U.S.A.

Now
29 °F

Freezing rain. Ice fog.


Feels Like: 18 °F
Forecast: 34 / 41 °F
Wind: 15 mph from South

Location: Hartford-Brainard Airport

Current Time: Mar 3, 2015 at 10:20:08 PM

Latest Report: Mar 3, 2015 at 9:53 PM


Visibility: 3 mi

Pressure: 29.90 "Hg

Humidity: 93%

Dew point: 27 °F

Location of HartfordLocation

Historic Weather in Hartford — Graph

°F

Hartford temperature yesterday

Maximum temperature yesterday: 36 °F (at 2:53 PM)
Minimum temperature yesterday: 25 °F (at 11:53 PM)
Average temperature yesterday: 30 °F

Past Weeks' High & Low Weather Summary

 TemperatureHumidityPressure
High40 °F (Feb 22, 3:53 PM)96% (Feb 21, 8:53 PM)30.80 "Hg (Feb 21, 8:53 PM)
Low-6 °F (Feb 21, 5:53 AM)27% (Feb 27, 3:53 PM)29.65 "Hg (Feb 19, 4:53 AM)
Average19 °F61%30.18 "Hg
* Reported Feb 16 8:53 PM — Mar 3 8:53 PM, Hartford, Weather by CustomWeather, © 2015

Note: Actual official high and low records may vary slightly from our data, if they occured in-between our weather recording intervals... More about our weather records

Advertising

Hartford weather history for previous 24 hours

 ConditionsComfort  
Time TempWeatherWind HumidityBarometerVisibility
8:53 PM
Tue, Mar 3
25 °FLight snow. Ice fog.7 mph92%29.99 "Hg1 mi
7:53 PM24 °FLight snow. Ice fog.3 mph88%30.05 "Hg1 mi
6:53 PM23 °FLight snow. Ice fog.9 mph92%30.11 "Hg1 mi
5:53 PM23 °FLight snow. Ice fog.8 mph92%30.17 "Hg1 mi
5:04 PM25 °FLight snow. Overcast.15 mph75%30.20 "Hg1 mi
3:53 PM28 °FOvercast.12 mph39%30.23 "Hg10 mi
2:53 PM30 °FMostly cloudy.6 mph36%30.28 "Hg10 mi
1:53 PM29 °FScattered clouds.8 mph33%30.30 "Hg10 mi
12:53 PM28 °FSunny.3 mph39%30.35 "Hg10 mi
11:53 AM26 °FSunny.5 mph38%30.40 "Hg10 mi
10:53 AM25 °FSunny.7 mph42%30.41 "Hg10 mi
9:53 AM24 °FSunny.No wind46%30.44 "Hg10 mi
8:53 AM21 °FSunny.No wind55%30.45 "Hg10 mi
7:53 AM15 °FSunny.7 mph70%30.44 "Hg10 mi
6:53 AM12 °FSunny.No wind77%30.43 "Hg10 mi
5:53 AM18 °FClear.No wind59%30.40 "Hg10 mi
4:53 AM19 °FClear.8 mph59%30.39 "Hg10 mi
3:53 AM20 °FClear.6 mph57%30.38 "Hg10 mi
2:53 AM21 °FClear.5 mph55%30.35 "Hg10 mi
1:53 AM21 °FClear.8 mph57%30.35 "Hg10 mi
12:53 AM24 °FClear.6 mph50%30.35 "Hg10 mi
11:53 PM
Mon, Mar 2
25 °FClear.6 mph48%30.32 "Hg10 mi
10:53 PM26 °FClear.8 mph46%30.31 "Hg10 mi
Weather by CustomWeather, © 2015

See weather overviewHow to use our weather pages